Astrocast 0.1 (43798 NORAD) Tracking and Keplerian Element Data

This shows tracking and keplerian element data for the satellite.

Feedback or suggestion? Click here.




ElementValue
Catalog43798
NameAstrocast 0.1
Epoch Orbit662
Epoch Day17.17417229
Epoch Year2019
RAAN90.9314
Inclination97.763
Eccentricity0.0013902
Argument of Perigee101.6797
Mean Anonmoly258.5984
Mean Motion14.95670976
Decay Rate-3.02E-06
L11 43798U 18099AS 19017.17417229 -.00000302 00000-0 -21876-4 0 9994
L22 43798 97.7630 90.9314 0013902 101.6797 258.5984 14.95670976 6626

Live tracking and technical data element details for Astrocast 0.1 (NORAD 43798). Astrocast 0.1 can be tracked NOW for your location showing map with azimuth and elevation plus other details from your city location.

Track the satellite on the map from your city or location and see movement details for azimuth, elevation, latitude, longitude, range, height, and movement on the map or in text.







IsCatalogInMostPopularTable: catalog: 43798, numindb: 41
Update: records affected: 1



GetName: 43798 Astrocast 0.1

Hit Count: updated at: Wed, 23 Jan 2019 02:41:12 GMT